User: anonymous   Login
Location: Bambrugge
(50.9212°N, 3.9299°E)
Time: 08:48:03
(UTC+00:00)
Language:

Nadezhda 1 Rocket - Orbit

View from above orbital plane
View from above orbital plane
View from above satellite
View from above satellite

Ground track
Ground track

The orbit data is extracted from the following two-line orbital elements,

1 20104U 89050B   24196.90489362  .00000057  00000-0  40889-4 0  9997
2 20104  82.9550  53.2105 0044329 142.7952 217.6291 13.77482732760191
Epoch (UTC): 14 July 2024 21:43:02
Eccentricity: 0.0044329
inclination: 82.9550°
perigee height: 940 km
apogee height: 1005 km
right ascension of ascending node: 53.2105°
argument of perigee: 142.7952°
revolutions per day: 13.77482732
mean anomaly at epoch: 217.6291°
orbit number at epoch: 76019

The dashed part of the orbit path shows where the satellite is in the earth's shadow,  

DLR